Madisonville, KY

6:18 AM CDT on August 24, 2016 (GMT -0500)
Madisonville

Weather History for K2I0 - January, 2014

Change the Weather History Date:

Monday, January 20, 2014

  Actual Average (KOWB) Record (KOWB)
Temperature  
Mean Temperature 45 °F -  
Max Temperature 55 °F 40 °F 66 °F (1951)
Min Temperature 35 °F 24 °F -13 °F (1985)
Degree Days  
Heating Degree Days 20    
Moisture  
Dew Point 32 °F    
Average Humidity 63    
Maximum Humidity 82    
Minimum Humidity 42    
Precipitation  
Precipitation 0.00 in - - ()
Sea Level Pressure  
Sea Level Pressure 29.89 in    
Wind  
Wind Speed 11 mph (WNW)    
Max Wind Speed 17 mph    
Max Gust Speed 24 mph    
Visibility 10 miles    
Events      
Averages and records for this station are not official NWS values.
T = Trace of Precipitation, MM = Missing Value Source: NWS Daily Summary

Daily Weather History Graph

Daily Weather History Graph

Search for Another Location

Airport or City:

Trip Planner

Search our weather history database for the weather conditions in past years. The results will help you decide how hot, cold, wet, or windy it might be!

Date:

Astronomy

Jan. 20, 2014 Rise Set
Actual Time 7:00 AM CST 5:00 PM CST
Civil Twilight 6:32 AM CST 5:29 PM CST
Nautical Twilight 6:00 AM CST 6:00 PM CST
Astronomical Twilight 5:29 AM CST 6:32 PM CST
Moon 9:28 PM CST (1/20) 9:06 AM CST (1/20)
Length of Visible Light 10h 56m
Length of Day
10h 00m
Waning Gibbous, 82% of the Moon is Illuminated
Jan 20
Waning Gibbous
Jan 23
Last Quarter
Jan 30
New
Feb 6
First Quarter
Feb 14
Full

Hourly Weather History & Observations

Time (CST) Temp. Windchill Dew Point Humidity Pressure Visibility Wind Dir Wind Speed Gust Speed Precip Events Conditions
12:15 AM 40.1 °F 31.6 °F 27.9 °F 62% 29.88 in 10.0 mi WSW 16.1 mph - N/A   Clear
12:35 AM 40.3 °F 31.6 °F 28.2 °F 62% 29.87 in 10.0 mi WSW 17.3 mph - N/A   Clear
12:55 AM 40.6 °F 32.0 °F 28.4 °F 62% 29.86 in 10.0 mi WSW 17.3 mph 24.2 mph N/A   Clear
1:15 AM 40.6 °F 32.0 °F 28.4 °F 62% 29.86 in 10.0 mi WSW 17.3 mph - N/A   Clear
1:35 AM 40.3 °F 31.9 °F 28.6 °F 63% 29.85 in 10.0 mi WSW 16.1 mph - N/A   Clear
1:55 AM 40.3 °F 31.9 °F 28.6 °F 63% 29.85 in 10.0 mi WSW 16.1 mph - N/A   Clear
2:15 AM 39.6 °F 31.3 °F 28.9 °F 66% 29.85 in 10.0 mi WSW 15.0 mph - N/A   Clear
2:35 AM 40.1 °F 32.4 °F 28.9 °F 64% 29.86 in 10.0 mi WSW 13.8 mph - N/A   Clear
2:55 AM 40.1 °F 32.7 °F 29.1 °F 65% 29.86 in 10.0 mi WSW 12.7 mph - N/A   Clear
3:15 AM 40.1 °F 32.4 °F 29.3 °F 65% 29.86 in 10.0 mi WSW 13.8 mph - N/A   Clear
3:35 AM 39.7 °F 32.3 °F 29.3 °F 66% 29.86 in 10.0 mi WSW 12.7 mph - N/A   Clear
3:55 AM 39.6 °F 32.5 °F 29.3 °F 67% 29.87 in 10.0 mi WSW 11.5 mph - N/A   Clear
4:15 AM 39.2 °F 31.6 °F 29.3 °F 68% 29.87 in 10.0 mi WSW 12.7 mph - N/A   Clear
4:35 AM 39.4 °F 31.4 °F 29.3 °F 67% 29.87 in 10.0 mi WSW 13.8 mph - N/A   Clear
4:55 AM 39.9 °F 32.5 °F 29.3 °F 66% 29.87 in 10.0 mi WSW 12.7 mph - N/A   Clear
5:15 AM 39.4 °F 31.4 °F 29.3 °F 67% 29.87 in 10.0 mi WSW 13.8 mph - N/A   Clear
5:35 AM 40.1 °F 32.7 °F 29.3 °F 65% 29.88 in 10.0 mi WSW 12.7 mph - N/A   Clear
5:55 AM 39.9 °F 32.9 °F 29.3 °F 66% 29.89 in 10.0 mi WSW 11.5 mph - N/A   Clear
6:15 AM 39.2 °F 32.0 °F 29.3 °F 68% 29.89 in 10.0 mi WSW 11.5 mph - N/A   Clear
6:35 AM 39.6 °F 32.5 °F 29.3 °F 67% 29.90 in 10.0 mi WSW 11.5 mph - N/A   Clear
6:55 AM 38.8 °F 32.6 °F 29.1 °F 68% 29.90 in 10.0 mi WSW 9.2 mph - N/A   Clear
7:15 AM 36.1 °F 29.9 °F 28.0 °F 72% 29.90 in 10.0 mi WSW 8.1 mph - N/A   Clear
7:35 AM 35.1 °F 29.3 °F 28.6 °F 77% 29.91 in 10.0 mi WSW 6.9 mph - N/A   Clear
7:55 AM 37.9 °F 32.1 °F 30.2 °F 74% 29.92 in 10.0 mi WSW 8.1 mph - N/A   Clear
8:15 AM 41.0 °F 35.8 °F 30.2 °F 65% 29.93 in 10.0 mi WSW 8.1 mph - N/A   Clear
8:35 AM 42.3 °F 36.3 °F 30.4 °F 63% 29.93 in 10.0 mi West 10.4 mph - N/A   Clear
8:55 AM 43.3 °F 38.1 °F 31.1 °F 62% 29.94 in 10.0 mi West 9.2 mph - N/A   Clear
9:15 AM 44.8 °F 40.4 °F 31.6 °F 60% 29.94 in 10.0 mi West 8.1 mph - N/A   Clear
9:35 AM 46.0 °F 41.9 °F 31.8 °F 58% 29.95 in 10.0 mi West 8.1 mph - N/A   Clear
9:55 AM 47.3 °F - 32.0 °F 55% 29.96 in 10.0 mi West 6.9 mph - N/A   Clear
10:15 AM 48.2 °F - 31.8 °F 53% 29.96 in 10.0 mi West 5.8 mph - N/A   Clear
10:35 AM 49.1 °F - 32.5 °F 53% 29.96 in 10.0 mi West 3.5 mph - N/A   Clear
10:55 AM 49.3 °F - 32.2 °F 52% 29.95 in 10.0 mi Calm Calm - N/A   Clear
11:15 AM 50.7 °F - 33.4 °F 52% 29.94 in 10.0 mi West 5.8 mph - N/A   Clear
11:35 AM 50.7 °F - 31.8 °F 48% 29.93 in 10.0 mi Calm Calm - N/A   Clear
11:55 AM 51.6 °F - 32.2 °F 47% 29.92 in 10.0 mi Calm Calm - N/A   Clear
12:15 PM 52.5 °F - 32.4 °F 46% 29.91 in 10.0 mi Calm Calm - N/A   Clear
12:35 PM 53.1 °F - 33.1 °F 47% 29.90 in 10.0 mi West 3.5 mph - N/A   Clear
12:55 PM 53.6 °F - 33.8 °F 47% 29.90 in 10.0 mi West 5.8 mph - N/A   Clear
1:15 PM 54.0 °F - 33.8 °F 46% 29.89 in 10.0 mi West 8.1 mph - N/A   Clear
1:35 PM 54.0 °F - 32.9 °F 45% 29.89 in 10.0 mi West 5.8 mph - N/A   Clear
1:55 PM 54.7 °F - 32.5 °F 43% 29.88 in 10.0 mi West 6.9 mph - N/A   Clear
2:15 PM 55.6 °F - 34.2 °F 44% 29.88 in 10.0 mi WNW 5.8 mph - N/A   Clear
2:35 PM 55.6 °F - 32.7 °F 42% 29.88 in 10.0 mi Calm Calm - N/A   Clear
2:55 PM 54.9 °F - 32.5 °F 43% 29.88 in 10.0 mi NW 3.5 mph - N/A   Clear
3:15 PM 55.4 °F - 33.6 °F 44% 29.88 in 10.0 mi NNW 3.5 mph - N/A   Clear
3:35 PM 55.4 °F - 33.4 °F 43% 29.88 in 10.0 mi North 5.8 mph - N/A   Clear
3:55 PM 54.3 °F - 34.7 °F 48% 29.88 in 10.0 mi North 6.9 mph - N/A   Clear
4:15 PM 52.9 °F - 35.4 °F 52% 29.88 in 10.0 mi NNE 6.9 mph - N/A   Clear
4:35 PM 48.9 °F - 36.0 °F 61% 29.88 in 10.0 mi North 8.1 mph - N/A   Clear
4:55 PM 47.3 °F - 35.1 °F 62% 29.88 in 10.0 mi North 6.9 mph - N/A   Clear
5:15 PM 46.8 °F - 34.2 °F 62% 29.88 in 10.0 mi North 8.1 mph - N/A   Clear
5:35 PM 44.6 °F 40.2 °F 35.1 °F 69% 29.89 in 10.0 mi North 8.1 mph - N/A   Clear
5:55 PM 45.0 °F 41.2 °F 34.7 °F 67% 29.89 in 10.0 mi NNE 6.9 mph - N/A   Clear
6:15 PM 44.4 °F 42.0 °F 34.7 °F 69% 29.89 in 10.0 mi North 4.6 mph - N/A   Clear
6:35 PM 45.0 °F 42.6 °F 34.2 °F 66% 29.90 in 10.0 mi NNE 4.6 mph - N/A   Clear
6:55 PM 44.4 °F 42.9 °F 33.8 °F 66% 29.90 in 10.0 mi NNE 3.5 mph - N/A   Clear
7:15 PM 43.7 °F 40.3 °F 33.6 °F 68% 29.90 in 10.0 mi North 5.8 mph - N/A   Clear
7:35 PM 41.5 °F 36.4 °F 33.6 °F 73% 29.90 in 10.0 mi North 8.1 mph - N/A   Clear
7:55 PM 40.5 °F 34.6 °F 33.3 °F 75% 29.90 in 10.0 mi North 9.2 mph - N/A   Clear
8:15 PM 40.1 °F 36.1 °F 33.8 °F 78% 29.89 in 10.0 mi NNE 5.8 mph - N/A   Clear
8:35 PM 38.5 °F 34.1 °F 33.3 °F 81% 29.90 in 10.0 mi North 5.8 mph - N/A   Clear
8:55 PM 40.1 °F 38.0 °F 34.0 °F 79% 29.89 in 10.0 mi North 3.5 mph - N/A   Clear
9:15 PM 39.7 °F - 33.8 °F 79% 29.90 in 10.0 mi Calm Calm - N/A   Clear
9:35 PM 40.1 °F 36.1 °F 33.8 °F 78% 29.89 in 10.0 mi NNW 5.8 mph - N/A   Clear
9:55 PM 39.6 °F 34.0 °F 34.3 °F 82% 29.89 in 10.0 mi North 8.1 mph - N/A   Clear
10:15 PM 39.2 °F 33.6 °F 34.2 °F 82% 29.89 in 10.0 mi North 8.1 mph - N/A   Clear
10:35 PM 39.4 °F 33.2 °F 34.2 °F 82% 29.89 in 10.0 mi North 9.2 mph - N/A   Clear
10:55 PM 39.2 °F 33.0 °F 33.8 °F 81% 29.90 in 10.0 mi North 9.2 mph - N/A   Scattered Clouds
11:15 PM 39.4 °F 33.8 °F 33.8 °F 80% 29.90 in 10.0 mi North 8.1 mph - N/A   Scattered Clouds
11:35 PM 39.6 °F 33.0 °F 33.6 °F 79% 29.90 in 10.0 mi NNW 10.4 mph - N/A   Mostly Cloudy
11:55 PM 39.4 °F 36.1 °F 33.3 °F 79% 29.88 in 10.0 mi North 4.6 mph - N/A   Overcast